Temperature
5 5 5 6 6 7 7 7 8 8 8 7 7 7 8 7 7 7 7 7 7 7 7 8 8 9 9 9 10 10 10 10 10 10 10 10 11 11 11 11 11 11 11 11
5 5 5 6 6 6 6 6 7 7 7 7 7 7 7 7 7 7 7 6 6 6 7 7 8 8 8 9 9 10 10 10 10 10 10 10 10 10 10 10 11 11 11 11
4 4 5 5 5 5 6 6 6 6 6 7 6 7 7 7 6 6 6 6 6 6 6 6 7 7 8 8 8 9 9 10 10 10 10 10 10 10 10 10 10 10 10 10
4 4 4 4 4 4 5 6 6 5 6 6 7 7 7 7 6 6 5 5 5 5 5 5 6 6 7 7 8 8 9 9 9 9 10 10 10 10 10 10 10 10 10 10
3 3 3 3 4 4 4 5 5 5 5 5 6 6 7 6 6 6 5 5 4 4 4 4 5 5 6 7 7 8 8 9 9 9 9 9 9 10 10 10 10 10 10 10
3 2 3 3 3 4 4 4 5 5 5 5 6 6 6 6 5 5 5 4 4 3 4 4 4 5 6 6 7 7 8 8 8 9 9 9 9 9 9 9 9 9 9 9
2 3 3 2 3 3 3 4 4 4 4 5 5 5 5 5 4 4 4 3 3 3 2 3 3 4 5 5 6 7 7 8 8 8 8 9 9 9 9 9 9 9 9 9
2 2 2 2 2 2 2 3 4 4 5 5 4 4 5 4 3 3 3 3 2 2 2 2 2 3 4 5 5 6 7 7 7 8 8 8 8 8 8 9 9 8 9 9
1 1 1 1 2 2 2 3 3 3 4 4 4 4 4 3 3 3 2 2 2 1 1 1 2 3 3 4 4 5 6 6 7 7 7 8 8 8 8 8 8 8 8 8
-1 -0 1 1 2 1 2 2 2 3 3 4 4 4 4 2 2 2 2 2 2 1 1 1 2 2 3 3 4 4 5 5 6 6 7 7 7 7 8 8 8 8 8 8
-1 -1 0 1 0 0 1 1 1 2 3 4 4 4 2 2 2 1 2 1 1 1 1 1 1 2 2 3 3 4 4 5 5 6 6 6 7 7 7 7 7 7 7 7
-1 -1 -0 -0 -0 -0 -0 -0 0 1 1 2 3 3 1 1 1 1 0 -0 0 0 0 1 1 1 2 2 3 3 4 4 5 5 5 6 6 6 7 7 7 7 7 7
-2 -2 -0 0 -0 -1 -1 -1 -1 -1 1 1 2 2 1 0 -0 -1 -1 -1 -1 -1 -0 0 1 1 1 2 2 2 3 3 4 4 5 5 5 6 6 6 6 6 6 6
-2 -2 -1 -0 -1 -1 -2 -2 -1 -1 -0 0 1 1 0 -0 -1 -1 -2 -2 -2 -1 -1 -1 -0 0 1 1 2 2 2 3 3 4 4 5 5 5 5 6 6 6 6 6
-2 -2 -3 -2 -2 -2 -2 -2 -2 -2 -1 -1 -0 -1 -1 -1 -2 -2 -2 -2 -2 -2 -2 -1 -1 -0 0 1 1 1 2 2 3 3 3 4 4 5 5 5 5 5 5 5
-4 -3 -3 -3 -2 -2 -2 -2 -2 -2 -2 -2 -1 -2 -2 -2 -3 -2 -3 -3 -3 -3 -2 -2 -2 -1 -1 0 1 1 1 2 2 2 3 3 4 4 4 4 4 5 5 5
-4 -4 -3 -1 -3 -2 -2 -3 -3 -3 -3 -3 -2 -2 -2 -3 -3 -3 -3 -4 -3 -3 -3 -3 -2 -2 -1 -1 -0 0 1 1 1 2 2 3 3 3 3 3 4 4 4 4
-5 -4 -4 -2 -3 -3 -2 -3 -3 -4 -4 -4 -3 -3 -3 -3 -4 -4 -4 -4 -4 -4 -3 -3 -2 -2 -1 -1 -1 -0 0 0 1 1 1 2 2 2 2 3 3 3 3 3
-5 -4 -3 -3 -3 -2 -2 -4 -4 -4 -4 -4 -4 -4 -4 -5 -4 -3 -4 -5 -4 -4 -4 -3 -2 -2 -2 -1 -1 -1 -0 -0 0 0 1 1 1 2 2 2 2 2 2 3
-5 -5 -4 -4 -3 -2 -2 -4 -5 -4 -3 -4 -5 -5 -5 -5 -3 -2 -4 -5 -5 -4 -4 -3 -3 -2 -2 -2 -1 -1 -1 -1 -1 -0 -0 0 1 1 1 1 1 2 2 2
-5 -5 -5 -4 -3 -2 -4 -6 -5 -4 -3 -5 -6 -6 -6 -5 -5 -5 -5 -5 -5 -4 -4 -3 -3 -3 -2 -2 -2 -2 -1 -1 -1 -1 -1 -0 0 0 0 0 1 1 1 1
-5 -4 -5 -5 -4 -3 -6 -6 -5 -4 -6 -6 -6 -7 -7 -7 -6 -6 -6 -6 -5 -4 -4 -4 -3 -3 -3 -2 -2 -2 -2 -2 -2 -1 -1 -1 -1 -0 -0 -0 0 0 0 1
-6 -6 -5 -5 -4 -6 -7 -6 -6 -7 -7 -7 -7 -7 -7 -7 -7 -7 -6 -6 -6 -5 -5 -4 -4 -3 -3 -3 -3 -2 -2 -2 -2 -2 -1 -1 -1 -1 -1 -1 -0 -0 -0 -0
-7 -9 -7 -7 -6 -7 -7 -7 -7 -7 -7 -7 -7 -7 -7 -7 -7 -7 -7 -6 -6 -6 -5 -5 -4 -4 -3 -3 -3 -3 -3 -3 -2 -2 -2 -2 -2 -2 -1 -1 -1 -1 -1 -1
-7 -9 -8 -8 -7 -8 -7 -7 -7 -7 -8 -8 -8 -8 -8 -8 -7 -7 -7 -7 -7 -6 -6 -5 -5 -5 -4 -4 -4 -3 -3 -3 -3 -3 -3 -2 -2 -2 -2 -2 -2 -2 -2 -2
-8 -9 -8 -6 -7 -7 -7 -7 -7 -8 -8 -8 -8 -8 -8 -8 -8 -8 -7 -7 -7 -7 -6 -6 -6 -5 -5 -4 -4 -4 -4 -4 -3 -3 -3 -3 -3 -3 -3 -3 -3 -3 -2 -2
Wind_Speed
1 2 4 5 8 9 9 11 12 9 5 6 8 9 7 6 5 6 6 5 6 6 6 5 5 6 6 6 7 8 8 8 7 6 7 7 7 6 6 6 7 9 10 10
1 4 5 5 5 7 9 10 10 7 3 5 7 10 8 6 7 7 7 6 6 6 6 5 5 5 5 6 7 7 7 8 8 7 8 6 7 6 6 6 7 8 9 10
2 4 4 3 4 7 10 11 9 7 5 5 6 9 8 6 6 6 6 6 6 5 5 5 4 4 5 5 6 6 7 7 8 8 7 6 6 5 5 6 6 7 9 10
3 4 4 3 5 6 9 8 8 8 6 5 6 7 6 5 5 5 6 5 5 5 4 3 3 3 4 4 4 5 6 7 7 8 8 10 9 8 7 7 6 7 9 9
2 4 4 4 6 6 6 6 8 9 8 6 7 7 6 3 6 7 6 5 5 4 3 2 2 2 3 3 3 3 5 5 6 7 9 10 9 7 6 7 7 7 8 9
3 3 3 5 6 4 4 3 5 6 6 7 8 8 6 4 6 6 5 4 4 3 2 2 1 1 1 1 2 2 4 5 5 6 8 8 9 9 8 9 8 7 6 6
3 2 3 5 4 2 2 1 3 4 5 6 4 5 5 2 3 4 4 3 2 1 2 2 2 1 0 1 1 2 4 4 5 5 6 7 8 9 9 9 8 8 7 6
3 3 4 5 4 4 4 4 4 4 5 4 3 6 3 2 3 3 2 1 1 2 2 2 2 1 1 1 1 2 3 4 4 5 5 6 6 5 6 7 7 7 6 7
3 3 5 6 5 3 3 4 5 4 3 4 4 4 3 4 5 5 3 3 3 3 3 2 2 1 1 1 1 1 2 3 4 4 5 5 5 5 5 5 6 6 5 5
3 4 5 5 4 4 3 3 2 3 3 4 5 5 3 5 6 5 4 3 3 3 4 3 2 2 2 1 1 1 1 2 2 3 4 3 5 5 5 5 5 6 6 6
2 2 4 3 3 5 4 2 2 2 3 4 4 2 3 5 5 5 5 4 4 4 3 2 2 3 3 3 2 2 2 1 1 1 3 3 4 5 5 5 5 5 5 6
3 2 3 2 2 4 3 4 3 3 3 3 4 2 5 6 5 6 6 6 5 4 3 2 3 3 3 3 2 2 2 1 1 1 1 2 3 4 5 5 4 4 5 5
2 2 3 1 0 3 3 5 4 2 2 3 4 2 5 7 8 8 8 7 6 5 4 3 3 3 3 3 3 3 2 2 1 0 1 2 2 3 4 4 4 4 5 5
1 1 2 3 4 3 4 5 4 1 2 4 5 6 7 9 10 10 9 8 7 6 5 5 4 4 4 3 3 3 3 3 2 1 0 1 2 2 3 3 3 4 4 5
2 1 2 5 6 4 4 6 4 3 5 5 6 6 7 9 10 9 8 7 7 7 6 6 6 5 4 4 3 3 3 3 2 1 1 1 1 2 2 2 3 3 3 4
1 1 2 3 4 4 5 6 4 4 4 6 7 6 8 9 8 8 7 7 7 7 6 7 7 6 5 5 4 4 4 3 2 2 2 2 1 1 1 1 2 3 3 3
1 1 2 3 4 4 4 4 3 2 3 3 5 6 8 9 9 8 7 7 7 7 6 7 7 6 6 5 4 4 4 3 2 2 2 2 1 1 1 1 1 2 2 2
3 2 2 2 2 3 0 2 2 4 4 3 4 7 8 9 10 7 5 6 7 7 7 7 7 7 6 6 5 4 3 3 2 2 2 2 1 1 1 1 1 1 1 2
3 3 2 1 3 5 2 1 2 3 4 3 5 8 9 9 7 4 5 7 8 8 7 7 7 7 6 6 5 3 3 3 3 3 3 2 2 1 1 1 2 1 1 2
1 2 2 2 3 4 1 3 3 3 3 3 5 7 8 7 5 5 8 10 10 9 7 7 7 7 6 6 4 3 3 3 3 3 3 3 2 1 2 1 1 1 1 1
2 2 3 4 4 4 2 3 1 3 3 4 5 6 7 5 7 9 11 10 9 9 8 8 7 6 6 6 4 3 3 4 4 4 3 2 2 1 1 1 1 1 1 1
4 3 4 4 5 4 2 1 2 3 4 4 5 6 7 8 9 10 10 10 9 9 9 8 7 6 6 6 4 3 4 4 4 3 2 2 2 1 1 0 0 0 1 2
4 4 3 5 4 1 3 3 3 3 4 5 6 7 7 9 9 9 9 9 9 8 8 7 7 6 6 6 5 4 5 4 3 2 2 2 2 1 1 0 1 1 1 2
2 2 4 5 6 5 5 5 5 5 6 7 7 7 7 8 9 9 9 9 8 8 7 7 6 6 6 6 6 5 5 3 2 2 2 2 1 1 1 1 0 1 1 2
3 3 4 6 6 5 5 6 7 7 7 7 7 7 7 8 8 8 8 8 8 7 7 6 5 6 6 6 6 5 4 3 2 2 2 1 1 1 1 1 1 0 1 2
4 5 5 5 4 4 4 4 5 6 7 7 7 7 7 7 8 8 8 7 7 7 6 5 6 6 6 6 6 5 4 3 2 1 1 1 1 0 0 1 2 4 2 2
Wind_Direction
120 194 221 237 233 248 247 243 246 253 260 251 245 256 274 279 270 259 259 262 262 259 255 250 234 223 212 204 197 191 184 184 178 181 182 182 184 181 177 174 177 179 175 172
191 252 262 268 258 252 251 245 251 258 269 254 250 257 265 270 263 257 256 259 261 268 269 261 246 225 211 203 201 194 191 189 188 189 187 186 181 183 179 175 179 182 176 173
241 311 291 258 268 265 255 237 243 253 276 239 248 257 250 267 273 273 270 267 266 266 262 249 239 225 218 212 207 199 196 195 192 185 179 172 171 172 178 184 185 188 183 178
281 312 325 276 274 266 257 245 248 244 234 233 229 252 249 267 285 297 288 276 270 267 266 254 240 238 234 225 212 201 194 191 190 184 181 182 184 186 188 185 187 188 187 184
306 325 321 295 286 272 270 272 239 229 225 241 233 241 262 262 279 285 284 281 266 267 272 267 252 252 240 224 200 189 182 181 187 188 185 186 191 191 182 179 183 187 186 186
292 316 317 307 303 274 294 249 208 209 213 232 234 230 263 261 265 274 279 283 268 272 296 310 295 295 223 186 161 162 169 174 179 185 186 189 189 186 180 180 184 187 186 186
307 313 350 343 334 326 328 191 200 201 213 234 215 222 255 303 297 278 272 275 267 285 333 334 339 343 91 103 132 148 162 172 179 183 189 191 191 188 189 188 190 189 188 192
314 309 345 348 331 282 254 231 230 234 232 236 204 232 251 357 333 324 315 307 27 25 3 342 334 348 80 91 108 138 157 173 181 183 189 192 192 192 195 196 194 196 195 193
315 306 348 348 341 323 267 239 260 270 265 242 220 239 261 348 356 2 2 3 6 7 351 343 346 8 54 79 106 123 156 172 181 185 185 191 190 191 194 195 200 200 199 194
304 288 325 336 337 359 327 286 239 238 243 241 237 234 286 329 332 347 351 343 339 342 341 346 354 14 14 17 44 73 114 141 170 187 187 193 195 195 197 196 199 199 196 193
324 301 324 346 4 344 355 340 289 243 260 251 245 246 359 331 331 335 341 342 339 337 333 352 16 19 17 19 29 43 66 88 127 179 186 190 196 197 197 197 201 200 198 195
338 306 301 297 350 352 10 357 327 253 259 264 259 293 14 358 355 356 354 348 342 336 341 20 30 27 21 14 14 22 29 40 54 184 186 193 205 199 194 196 202 199 198 195
332 312 311 293 245 13 359 355 345 305 271 262 248 271 4 0 357 358 355 354 352 354 7 17 23 19 13 5 359 6 5 2 354 318 195 189 206 206 200 202 203 202 200 197
354 247 257 273 308 311 316 331 332 295 255 269 264 279 324 344 347 347 351 353 353 360 9 10 9 6 4 358 351 351 348 353 348 337 274 220 224 220 218 209 204 203 203 200
355 267 257 274 285 280 291 304 301 264 256 260 276 285 309 324 327 332 340 347 353 0 3 3 359 356 355 352 349 342 341 346 343 341 341 309 274 223 222 216 207 203 202 204
342 270 277 278 278 283 291 308 292 271 267 263 281 287 311 319 322 328 338 343 348 350 351 351 351 350 348 343 337 338 340 339 340 336 327 331 326 312 239 230 204 198 195 193
228 220 258 276 316 293 271 286 270 263 282 259 262 286 311 318 317 319 325 332 334 336 339 341 340 338 335 329 323 321 325 331 334 336 331 333 327 302 271 242 208 198 198 191
204 203 230 288 307 245 314 35 290 260 275 265 286 304 310 305 301 304 320 329 328 328 331 330 329 329 329 329 323 323 330 337 335 335 337 331 326 314 291 249 230 224 202 193
211 206 225 254 268 272 280 329 312 263 277 308 302 306 314 319 305 301 340 333 321 318 318 318 319 319 323 327 325 328 336 341 340 334 331 324 319 302 287 261 233 220 202 194
138 206 220 225 254 254 340 356 326 242 259 343 317 307 314 326 307 312 334 326 318 318 319 321 322 321 325 328 330 331 331 332 325 319 315 313 308 284 269 266 258 226 198 188
203 211 220 233 246 262 341 332 250 223 295 330 305 299 303 294 286 304 314 316 317 317 321 324 323 324 324 327 331 320 319 315 313 311 311 320 317 295 278 275 267 222 180 167
211 211 211 213 230 248 69 134 213 278 327 307 301 299 296 292 296 303 310 314 319 322 324 325 322 320 325 332 327 312 307 310 315 316 319 326 328 327 317 228 197 193 183 175
219 227 234 223 237 352 181 215 258 296 291 296 297 299 297 295 298 304 308 312 315 317 318 320 317 319 328 332 328 312 308 313 319 325 326 332 349 2 22 153 162 174 199 194
232 240 240 254 257 267 255 256 278 282 283 291 294 296 296 293 300 305 306 309 312 313 313 316 320 323 324 329 328 319 314 314 321 328 331 339 2 20 32 23 202 192 202 205
242 198 236 252 272 292 261 259 271 280 284 290 295 294 291 293 297 301 303 306 309 311 313 315 313 313 316 323 328 327 325 326 324 328 331 346 9 26 36 30 11 294 274 244
212 209 217 242 246 244 271 276 276 278 282 284 290 295 294 291 292 298 300 302 304 307 311 315 314 313 316 321 326 329 331 332 327 330 336 339 346 14 37 55 33 31 22 19
Height
1495 1494 1491 1491 1491 1489 1487 1485 1482 1483 1486 1488 1486 1485 1486 1486 1486 1485 1485 1485 1484 1484 1484 1485 1486 1487 1489 1491 1493 1496 1499 1501 1504 1507 1510 1513 1516 1519 1522 1524 1527 1529 1532 1534
1493 1492 1492 1493 1492 1491 1487 1484 1482 1483 1486 1487 1484 1483 1483 1484 1483 1483 1483 1482 1482 1481 1481 1481 1482 1484 1485 1487 1489 1492 1495 1497 1501 1504 1507 1510 1513 1516 1519 1522 1524 1526 1528 1532
1493 1494 1493 1492 1491 1490 1485 1483 1482 1484 1484 1484 1483 1478 1477 1479 1480 1480 1480 1479 1480 1479 1479 1479 1479 1480 1481 1483 1485 1488 1491 1494 1497 1500 1504 1507 1510 1513 1515 1518 1521 1524 1526 1529
1495 1495 1493 1491 1490 1489 1483 1482 1483 1484 1483 1479 1480 1473 1470 1475 1475 1476 1476 1476 1477 1477 1477 1477 1477 1477 1478 1480 1481 1484 1487 1490 1493 1497 1500 1503 1506 1508 1511 1514 1518 1521 1523 1526
1496 1496 1494 1491 1490 1490 1485 1484 1482 1481 1480 1480 1478 1476 1468 1472 1473 1473 1475 1475 1475 1475 1475 1474 1475 1475 1476 1477 1479 1481 1484 1486 1489 1493 1496 1500 1503 1506 1509 1512 1515 1517 1520 1522
1498 1499 1497 1494 1491 1489 1487 1483 1480 1479 1478 1479 1474 1474 1468 1470 1472 1472 1474 1474 1473 1473 1473 1472 1473 1473 1474 1474 1475 1478 1481 1483 1486 1489 1493 1496 1499 1502 1505 1508 1511 1514 1516 1519
1497 1497 1497 1495 1491 1489 1487 1483 1478 1475 1474 1470 1472 1474 1472 1472 1474 1474 1473 1473 1472 1472 1471 1470 1470 1470 1471 1472 1473 1475 1478 1480 1483 1486 1489 1492 1496 1499 1502 1505 1508 1510 1513 1515
1499 1494 1497 1496 1495 1492 1489 1486 1481 1475 1469 1467 1474 1473 1471 1476 1476 1475 1474 1473 1472 1471 1470 1469 1469 1469 1470 1471 1472 1473 1475 1478 1480 1483 1486 1490 1493 1496 1499 1502 1505 1507 1509 1511
1505 1500 1500 1498 1497 1494 1489 1487 1486 1483 1476 1473 1471 1472 1474 1476 1474 1473 1472 1472 1471 1471 1470 1470 1469 1469 1469 1470 1471 1472 1474 1476 1478 1481 1484 1486 1489 1492 1495 1498 1501 1504 1506 1508
1513 1508 1502 1501 1498 1496 1494 1490 1487 1483 1478 1471 1468 1468 1470 1475 1474 1474 1473 1472 1472 1472 1470 1470 1469 1469 1469 1469 1470 1470 1472 1474 1476 1478 1481 1483 1486 1489 1492 1495 1497 1500 1502 1505
1514 1511 1504 1501 1501 1498 1496 1494 1489 1484 1481 1473 1468 1471 1478 1479 1478 1477 1475 1474 1473 1472 1471 1470 1470 1469 1469 1469 1469 1470 1471 1472 1474 1476 1478 1480 1483 1486 1488 1491 1494 1496 1498 1501
1514 1511 1505 1503 1504 1504 1501 1499 1495 1489 1486 1480 1472 1479 1483 1483 1481 1479 1478 1476 1474 1473 1472 1471 1470 1470 1469 1469 1469 1469 1469 1470 1471 1473 1475 1478 1480 1482 1485 1487 1490 1492 1495 1497
1515 1513 1504 1497 1503 1505 1504 1503 1500 1497 1491 1484 1477 1483 1484 1484 1482 1480 1478 1476 1474 1472 1472 1471 1470 1470 1469 1469 1469 1469 1469 1469 1470 1472 1473 1475 1477 1479 1481 1484 1486 1489 1491 1493
1515 1514 1511 1505 1503 1506 1506 1504 1502 1499 1492 1488 1485 1485 1485 1485 1484 1482 1479 1477 1475 1473 1472 1471 1470 1470 1470 1470 1469 1469 1469 1469 1469 1470 1472 1473 1474 1476 1478 1480 1483 1485 1487 1489
1516 1514 1513 1510 1509 1508 1506 1504 1502 1500 1496 1492 1489 1489 1489 1489 1487 1485 1481 1479 1476 1474 1472 1471 1470 1470 1469 1469 1469 1468 1468 1468 1468 1469 1470 1471 1473 1474 1475 1477 1479 1481 1484 1486
1518 1516 1515 1511 1508 1506 1504 1502 1501 1500 1498 1496 1493 1492 1492 1491 1488 1485 1483 1480 1477 1475 1473 1472 1471 1470 1469 1468 1467 1467 1467 1467 1467 1467 1468 1469 1470 1471 1473 1474 1476 1478 1480 1482
1517 1518 1513 1504 1508 1505 1499 1502 1502 1501 1500 1498 1495 1495 1493 1491 1488 1485 1483 1480 1478 1475 1473 1472 1471 1470 1469 1468 1467 1466 1466 1466 1466 1466 1467 1467 1468 1469 1470 1472 1473 1475 1476 1478
1518 1517 1514 1507 1507 1505 1500 1504 1502 1501 1500 1500 1497 1495 1493 1491 1488 1485 1483 1481 1478 1476 1473 1472 1470 1469 1468 1467 1466 1465 1465 1465 1465 1465 1465 1466 1467 1468 1469 1470 1470 1471 1473 1474
1516 1515 1511 1508 1503 1497 1500 1503 1503 1502 1498 1498 1497 1495 1493 1490 1485 1482 1482 1480 1478 1476 1473 1471 1470 1468 1467 1465 1464 1463 1463 1463 1463 1463 1463 1464 1465 1465 1466 1467 1468 1469 1470 1471
1517 1516 1512 1509 1503 1497 1498 1503 1502 1502 1496 1497 1496 1494 1492 1490 1484 1482 1481 1479 1477 1474 1472 1470 1469 1467 1466 1464 1463 1462 1461 1461 1461 1462 1462 1462 1462 1463 1464 1464 1465 1466 1468 1468
1514 1514 1512 1508 1503 1496 1502 1503 1502 1500 1494 1497 1495 1494 1492 1490 1488 1485 1481 1478 1475 1473 1471 1469 1467 1466 1464 1463 1462 1461 1460 1460 1460 1460 1460 1460 1460 1461 1461 1462 1463 1464 1465 1466
1510 1507 1509 1507 1503 1499 1502 1501 1501 1497 1496 1495 1494 1492 1490 1488 1485 1482 1479 1476 1474 1471 1469 1467 1466 1464 1463 1462 1461 1459 1458 1458 1458 1458 1458 1458 1458 1458 1459 1459 1460 1461 1463 1463
1511 1509 1505 1504 1501 1500 1500 1499 1498 1497 1495 1494 1492 1490 1488 1485 1483 1480 1477 1475 1472 1470 1468 1466 1464 1462 1461 1460 1459 1458 1457 1457 1456 1456 1455 1455 1455 1456 1456 1457 1458 1459 1460 1461
1509 1510 1508 1505 1499 1499 1498 1497 1496 1495 1493 1492 1490 1488 1486 1483 1481 1478 1475 1473 1470 1468 1466 1464 1462 1461 1459 1458 1457 1456 1456 1455 1454 1453 1453 1453 1453 1454 1455 1455 1456 1457 1457 1458
1506 1507 1505 1501 1498 1497 1494 1494 1493 1492 1491 1489 1487 1486 1484 1481 1478 1476 1473 1470 1468 1466 1464 1463 1461 1459 1458 1457 1456 1455 1454 1453 1452 1452 1451 1451 1452 1452 1452 1453 1454 1455 1456 1456
1502 1502 1500 1495 1494 1494 1492 1491 1490 1489 1488 1487 1485 1483 1481 1479 1476 1473 1471 1468 1466 1464 1462 1461 1459 1458 1456 1455 1453 1452 1451 1451 1450 1450 1449 1449 1450 1450 1450 1451 1451 1452 1453 1454